Weather

DAILY 7 DAY TOTAL
onrain

Note: Some stations are located near irrigated fields and may also report irrigation

Alliston Mount Forest Blyth Guelph Grand Bend Strathroy Woodstock Belmont Simcoe Leamington Chatham West Lorne






Woodstock Outdoor FS - Historical Weather Data
Date Max Temp (°C) Min Temp (°C) Avg Temp (°C) Rain (mm) 7Day Rain(mm) Total Rain(mm) Avg RH (%)
9/21/2019 27.9 13.2 20.5 0.0 0.2 477.8 83.7
9/20/2019 26.0 10.1 17.8 0.0 0.2 477.8 81.7
9/19/2019 23.3 10.5 17.0 0.0 4.0 477.8 75.1
9/18/2019 23.3 9.4 16.4 0.0 8.8 477.8 75.5
9/17/2019 22.9 10.4 16.2 0.0 47.4 477.8 77.2
9/16/2019 21.7 12.4 17.0 0.0 54.8 477.8 90.0
9/15/2019 22.9 10.1 16.2 0.2 54.8 477.8 89.9
9/14/2019 21.4 12.5 17.2 0.0 54.8 477.6 80.0
9/13/2019 24.2 12.3 17.6 3.8 55.2 477.6 87.4
9/12/2019 18.9 12.5 15.5 4.8 51.4 473.8 92.2
9/11/2019 28.2 18.3 21.5 38.6 46.6 469.0 92.5
9/10/2019 25.4 9.7 18.0 7.4 8.8 430.4 81.6
9/9/2019 20.1 8.3 13.7 0.0 1.6 423.0 78.9
9/8/2019 18.3 9.3 13.6 0.2 1.8 423.0 82.9
9/7/2019 21.6 11.4 16.1 0.4 3.8 422.8 83.4
9/6/2019 19.7 7.8 14.5 0.0 3.4 422.4 82.8
9/5/2019 21.7 4.9 13.8 0.0 3.4 422.4 77.8
9/4/2019 22.2 8.5 16.7 0.8 3.4 422.4 82.9
9/3/2019 23.9 10.9 18.3 0.2 2.6 421.6 86.9
9/2/2019 23.5 14.5 18.6 0.2 8.4 421.4 84.8
9/1/2019 18.8 12.6 15.8 2.2 8.2 421.2 88.9
8/31/2019 21.3 7.8 15.1 0.0 6.0 419.0 74.1
8/30/2019 21.9 10.4 18.0 0.0 6.0 419.0 71.9
8/29/2019 23.1 12.3 18.3 0.0 6.0 419.0 72.9
8/28/2019 24.0 15.0 20.0 0.0 6.0 419.0 75.3
8/27/2019 22.9 17.2 19.8 6.0 8.8 419.0 93.2
8/26/2019 22.7 11.8 18.2 0.0 10.6 413.0 76.7
8/25/2019 22.6 10.1 16.6 0.0 12.0 413.0 77.6
8/24/2019 22.4 8.9 15.5 0.0 34.6 413.0 73.1
8/23/2019 21.9 9.6 15.6 0.0 59.0 413.0 74.8
8/22/2019 22.1 12.6 17.8 0.0 59.0 413.0 72.4
8/21/2019 27.9 17.9 22.3 2.8 59.0 413.0 88.2
8/20/2019 27.9 15.1 21.7 7.8 56.2 410.2 82.8
8/19/2019 26.2 16.6 21.6 1.4 48.4 402.4 83.5
8/18/2019 27.0 17.9 21.8 22.6 49.4 401.0 90.7
8/17/2019 27.1 14.8 21.5 24.4 26.8 378.4 84.4
8/16/2019 26.1 13.2 19.5 0.0 2.4 354.0 79.7
8/15/2019 23.4 14.2 18.2 0.0 2.4 354.0 72.6
8/14/2019 26.2 15.2 20.3 0.0 6.6 354.0 66.9
8/13/2019 28.9 18.0 22.9 0.0 6.6 354.0 78.9
8/12/2019 27.5 18.3 22.0 2.4 9.0 354.0 82.3
8/11/2019 26.3 10.9 19.0 0.0 19.8 351.6 75.7
8/10/2019 22.9 10.5 17.0 0.0 19.8 351.6 72.8
8/9/2019 24.0 12.2 18.5 0.0 19.8 351.6 75.1
8/8/2019 24.4 14.5 19.6 4.2 19.8 351.6 83.6
8/7/2019 26.8 15.2 21.1 0.0 15.6 347.4 81.3
8/6/2019 26.2 18.5 22.1 2.4 15.6 347.4 88.5
8/5/2019 27.2 13.8 20.4 13.2 18.4 345.0 86.9
8/4/2019 26.4 14.6 20.6 0.0 8.4 331.8 81.6
8/3/2019 28.0 11.9 20.8 0.0 11.4 331.8 71.1
8/2/2019 27.4 12.6 20.3 0.0 11.4 331.8 68.9
8/1/2019 26.7 12.1 19.7 0.0 11.6 331.8 70.2
7/31/2019 25.2 13.9 19.8 0.0 11.6 331.8 73.9
7/30/2019 27.2 18.7 22.5 5.2 11.6 331.8 83.0
7/29/2019 28.1 19.2 23.3 3.2 6.4 326.6 83.3
7/28/2019 28.7 19.4 23.1 3.0 3.4 323.4 83.2
7/27/2019 27.3 15.4 22.2 0.0 0.6 320.4 76.5
7/26/2019 27.2 14.5 20.8 0.2 2.4 320.4 80.5
7/25/2019 26.9 11.7 19.9 0.0 13.6 320.2 73.5
7/24/2019 25.0 12.2 19.0 0.0 13.6 320.2 66.5
7/23/2019 25.2 12.3 18.6 0.0 69.0 320.2 64.2
7/22/2019 24.2 16.8 20.2 0.2 69.6 320.2 75.9
7/21/2019 26.8 19.1 22.5 0.2 69.4 320.0 75.6
7/20/2019 32.3 21.3 26.4 1.8 69.2 319.8 81.3
7/19/2019 29.8 21.7 24.6 11.4 67.6 318.0 90.7
7/18/2019 28.7 18.9 23.4 0.0 56.2 306.6 85.5
7/17/2019 29.4 19.9 24.0 55.4 56.2 306.6 89.9
7/16/2019 28.4 20.0 23.8 0.6 2.0 251.2 79.3
7/15/2019 27.8 9.6 20.1 0.0 1.4 250.6 66.8
7/14/2019 26.4 13.2 20.2 0.0 1.4 250.6 66.2
7/13/2019 28.7 13.5 21.5 0.2 1.6 250.6 79.6
7/12/2019 22.9 14.6 18.6 0.0 4.4 250.4 78.4
7/11/2019 28.6 17.5 23.2 0.0 4.6 250.4 78.2
7/10/2019 30.4 14.6 22.8 1.2 4.6 250.4 73.8
7/9/2019 27.2 12.0 20.0 0.0 3.4 249.2 67.8
7/8/2019 25.8 11.7 19.3 0.0 5.4 249.2 65.4
7/7/2019 24.5 15.7 21.1 0.2 5.4 249.2 68.5
7/6/2019 30.0 21.0 24.5 3.0 5.2 249.0 85.5
7/5/2019 31.8 19.6 25.4 0.2 2.4 246.0 82.6
7/4/2019 30.7 18.5 24.8 0.0 3.2 245.8 76.2
7/3/2019 29.9 18.3 23.4 0.0 3.2 245.8 81.5
7/2/2019 26.2 19.0 22.6 2.0 6.0 245.8 82.4
7/1/2019 28.0 11.9 20.6 0.0 6.2 243.8 70.7
6/30/2019 24.0 15.6 19.9 0.0 11.8 243.8 66.1
6/29/2019 27.6 17.8 22.8 0.2 11.8 243.8 78.7
6/28/2019 28.5 14.7 22.3 1.0 11.6 243.6 75.3
6/27/2019 29.0 15.6 22.4 0.0 10.6 242.6 65.6
6/26/2019 28.1 17.6 22.5 2.8 35.2 242.6 68.3
6/25/2019 25.2 17.9 20.8 2.2 32.4 239.8 78.0
6/24/2019 25.8 15.2 20.8 5.6 30.2 237.6 72.6
6/23/2019 25.7 10.5 19.1 0.0 24.6 232.0 62.8
6/22/2019 24.4 10.9 18.2 0.0 25.2 232.0 59.9
6/21/2019 21.5 12.3 17.1 0.0 26.4 232.0 69.7
6/20/2019 21.1 15.4 17.9 24.6 26.4 232.0 87.6
6/19/2019 26.3 12.1 20.4 0.0 16.4 207.4 63.6
6/18/2019 25.3 14.0 19.6 0.0 16.4 207.4 68.3
6/17/2019 23.1 11.0 17.2 0.0 16.4 207.4 75.2
6/16/2019 17.8 12.8 15.1 0.6 24.8 207.4 84.8
6/15/2019 18.1 14.9 16.4 1.2 24.2 206.8 81.5
6/14/2019 21.0 9.8 15.3 0.0 23.0 205.6 66.9
6/13/2019 18.6 11.1 14.7 14.6 23.0 205.6 87.5
6/12/2019 22.7 10.5 17.2 0.0 8.4 191.0 55.0
6/11/2019 20.8 9.1 15.3 0.0 25.8 191.0 61.7
6/10/2019 20.8 12.6 17.3 8.4 25.8 191.0 81.0
6/9/2019 26.2 13.5 20.1 0.0 17.4 182.6 59.1
6/8/2019 24.6 12.3 18.9 0.0 18.2 182.6 51.9
6/7/2019 25.9 10.8 19.4 0.0 33.2 182.6 60.4
6/6/2019 24.0 15.2 18.4 0.0 33.2 182.6 81.3
6/5/2019 20.8 15.2 17.9 17.4 33.2 182.6 89.1
6/4/2019 21.9 6.5 14.5 0.0 16.0 165.2 76.4
6/3/2019 14.5 4.7 9.8 0.0 20.4 165.2 67.1
6/2/2019 18.1 7.4 13.8 0.8 20.4 165.2 70.2
6/1/2019 23.3 13.9 17.6 15.0 19.8 164.4 84.4
5/31/2019 22.7 7.2 15.4 0.0 63.0 149.4 65.9
5/30/2019 20.4 11.7 16.2 0.0 63.0 149.4 88.8
5/29/2019 16.4 10.5 12.9 0.2 69.6 149.4 91.3
5/28/2019 16.4 9.5 11.5 4.4 70.2 149.2 92.2
5/27/2019 23.3 8.8 16.9 0.0 65.8 144.8 66.9
5/26/2019 22.3 12.8 17.7 0.2 65.8 144.8 76.4
5/25/2019 27.5 10.9 17.6 58.2 68.0 144.6 90.0
5/24/2019 18.5 8.6 14.0 0.0 9.8 86.4 78.9
5/23/2019 24.7 8.9 17.1 6.6 9.8 86.4 78.6
5/22/2019 16.1 6.4 11.9 0.8 3.2 79.8 71.3
5/21/2019 18.3 2.6 11.1 0.0 2.8 79.0 65.2
5/20/2019 15.4 5.1 11.7 0.0 2.8 79.0 83.8
5/19/2019 27.3 8.0 17.2 2.4 8.4 79.0 75.2
5/18/2019 17.1 4.3 10.7 0.0 8.6 76.6 73.5
5/17/2019 17.2 7.9 13.5 0.0 8.6 76.6 72.3
5/16/2019 18.3 4.7 13.3 0.0 16.8 76.6 68.4
5/15/2019 20.2 5.0 12.6 0.4 28.2 76.6 65.9
5/14/2019 16.1 5.9 9.7 0.0 27.8 76.2 74.4
5/13/2019 7.7 4.2 5.9 5.6 38.6 76.2 93.3
5/12/2019 8.6 4.7 6.7 2.6 34.6 70.6 83.2
5/11/2019 11.3 0.6 7.1 0.0 32.0 68.0 70.7
5/10/2019 16.8 3.5 10.2 8.2 32.8 68.0 87.4
5/9/2019 20.5 7.0 13.1 11.4 38.6 59.8 71.5
5/8/2019 11.7 3.3 8.0 0.0 28.0 48.4 54.5
5/7/2019 13.6 6.2 9.0 10.8 48.4 48.4 76.1
5/6/2019 20.2 6.7 13.7 1.6 41.0 37.6 79.0
5/5/2019 19.4 5.9 12.6 0.0 41.8 36.0 73.7
5/4/2019 13.2 8.2 10.1 0.8 42.8 36.0 92.7
5/3/2019 13.3 7.0 9.9 14.0 42.0 35.2 93.3
5/2/2019 18.7 6.0 11.3 0.8 45.4 21.2 85.7
5/1/2019 15.8 4.2 8.9 20.4 44.6 20.4 92.5